Regional Weather Roundup
Issued by NWS

Home | Current Version | Previous Version | Text Only | Print | Product List | Glossary On
Versions: 1 2 3 4 5 6 7 8 9 10 11 12 13 14 15 16 17 18 19 20 21 22 23 24 25 26 27 28 29 30 31 32 33 34 35 36 37 38 39 40 41 42 43 44 45 46 47 48 49 50
000
ASUS43 KBIS 260920
RWRND

NORTH DAKOTA REGIONAL WEATHER ROUNDUP
NATIONAL WEATHER SERVICE BISMARCK ND
300 AM CST FRI DEC 26 2014

NOTE: "FAIR" INDICATES FEW OR NO CLOUDS BELOW 12,000 FEET WITH NO
SIGNIFICANT WEATHER AND/OR OBSTRUCTIONS TO VISIBILITY.


NDZ001>003-009>011-017-261000-
NORTHWEST NORTH DAKOTA

CITY           SKY/WX    TMP DP  RH WIND       PRES   REMARKS
WILLISTON      FLURRIES  14   9  80 NW12      30.11S WCI   0
MINOT          CLEAR      6   1  80 NW13      30.09R WCI -10
MINOT AFB      CLEAR      4   2  93 NW12      30.10R WCI -12
$$

NDZ018>021-031>035-040>046-261000-
SOUTHWEST NORTH DAKOTA

CITY           SKY/WX    TMP DP  RH WIND       PRES   REMARKS
BISMARCK       CLOUDY    23  18  81 N12       30.08R WCI  12
DICKINSON      CLOUDY    18  11  74 NW14      30.03R WCI   4
GARRISON         N/A      9   5  84 NW8       30.09R WCI  -3
HETTINGER ARPT CLOUDY    19  14  81 NW10      30.05R WCI   7
$$

NDZ004>008-012>016-024-026-027-054-261000-
NORTHEAST NORTH DAKOTA

CITY           SKY/WX    TMP DP  RH WIND       PRES   REMARKS
GRAND FORKS    CLOUDY    24  19  81 N15G22    30.05R WCI  11
GRND FRKS AFB  CLOUDY    24  22  92 N10       30.06R WCI  14
DEVILS LAKE    CLOUDY    21  16  79 N9        30.04S WCI  11
$$

NDZ022-023-025-028>030-036>039-047>053-261000-
SOUTHEAST NORTH DAKOTA

CITY           SKY/WX    TMP DP  RH WIND       PRES   REMARKS
FARGO          CLOUDY    25  20  81 N14       30.03R WCI  13
JAMESTOWN      CLOUDY    24  19  81 N13       30.03R WCI  12
$$



USA.gov is the U.S. government's official web portal to all federal, state and local government web resources and services.